Weather History for Lawrenceville, IL

Change the Weather History Date:

Sunday, November 25, 2012

  Actual Average Record
Temperature  
Mean Temperature 39 °F 42 °F  
Max Temperature 52 °F 51 °F 66 °F (1990)
Min Temperature 26 °F 34 °F 19 °F (1991)
Degree Days  
Heating Degree Days 26 23  
Month to date heating degree days 523 440  
Since 1 July heating degree days 915 737  
Cooling Degree Days 0 0  
Month to date cooling degree days 0 0  
Year to date cooling degree days 1707 1386  
Moisture  
Dew Point 27 °F    
Average Humidity 64    
Maximum Humidity 89    
Minimum Humidity 38    
Precipitation  
Precipitation 0.00 in 0.14 in 2.12 in (1973)
Month to date precipitation 1.24 3.26  
Year to date precipitation 28.16 39.78  
Sea Level Pressure  
Sea Level Pressure 30.01 in    
Wind  
Wind Speed 7 mph (SW)    
Max Wind Speed 17 mph    
Max Gust Speed 22 mph    
Visibility 9 miles    
Events      
T = Trace of Precipitation, MM = Missing Value Source: NWS Daily Summary

Daily Weather History Graph

Daily Weather History Graph

Search for Another Location

Airport:

Trip Planner

Search our weather history database for the weather conditions in past years. The results will help you decide how hot, cold, wet, or windy it might be!

Date:

Astronomy

Nov. 25, 2012 Rise Set
Actual Time 6:44 AM CST 4:30 PM CST
Civil Twilight 6:15 AM CST 4:59 PM CST
Nautical Twilight 5:42 AM CST 5:32 PM CST
Astronomical Twilight 5:10 AM CST 6:04 PM CST
Moon 2:46 PM CST 3:58 AM CST
Length of Visible Light 10h 44m
Length of Day
9h 46m
Waxing Gibbous, 93% of the Moon is Illuminated
Nov 25
Waxing Gibbous
Nov 28
Full
Dec 6
Last Quarter
Dec 13
New
Dec 19
First Quarter

Hourly Weather History & Observations

Time (CST) Temp. Windchill Dew Point Humidity Pressure Visibility Wind Dir Wind Speed Gust Speed Precip Events Conditions
12:53 AM 27.0 °F 19.5 °F 21.9 °F 81% 30.10 in 5.0 mi SSE 6.9 mph - N/A   Haze
1:53 AM 28.0 °F 21.7 °F 23.0 °F 81% 30.09 in 6.0 mi South 5.8 mph - N/A   Haze
2:53 AM 28.0 °F 20.8 °F 23.0 °F 81% 30.08 in 7.0 mi South 6.9 mph - N/A   Clear
3:53 AM 28.9 °F 21.1 °F 23.0 °F 78% 30.05 in 8.0 mi South 8.1 mph - N/A   Clear
4:53 AM 30.0 °F 21.1 °F 24.1 °F 79% 30.02 in 9.0 mi South 10.4 mph - N/A   Clear
5:53 AM 33.1 °F 24.9 °F 25.0 °F 72% 30.01 in 10.0 mi SSW 10.4 mph - N/A   Clear
6:53 AM 34.0 °F 25.5 °F 24.1 °F 67% 30.01 in 10.0 mi SSW 11.5 mph - N/A   Clear
7:53 AM 36.0 °F 27.5 °F 25.0 °F 64% 30.01 in 10.0 mi SSW 12.7 mph - N/A   Clear
8:53 AM 39.9 °F 32.1 °F 26.1 °F 58% 30.01 in 10.0 mi SSW 13.8 mph - N/A   Clear
9:53 AM 45.0 °F 37.9 °F 26.1 °F 48% 30.00 in 10.0 mi SW 16.1 mph - N/A   Clear
10:53 AM 48.9 °F - 27.0 °F 43% 29.99 in 10.0 mi WSW 13.8 mph - N/A   Clear
11:53 AM 51.1 °F - 27.0 °F 39% 29.96 in 10.0 mi SW 12.7 mph - N/A   Clear
12:53 PM 51.1 °F - 28.0 °F 41% 29.95 in 10.0 mi WSW 8.1 mph - N/A   Clear
1:53 PM 51.1 °F - 28.9 °F 43% 29.94 in 10.0 mi West 8.1 mph - N/A   Clear
2:53 PM 51.1 °F - 28.9 °F 43% 29.94 in 10.0 mi SW 6.9 mph - N/A   Clear
3:53 PM 51.1 °F - 30.0 °F 44% 29.96 in 10.0 mi SW 6.9 mph - N/A   Clear
4:53 PM 48.0 °F - 30.0 °F 50% 29.97 in 10.0 mi SW 3.5 mph - N/A   Clear
5:53 PM 45.0 °F 43.5 °F 30.9 °F 58% 29.99 in 10.0 mi WNW 3.5 mph - N/A   Clear
6:53 PM 44.1 °F - 33.1 °F 65% 30.01 in 10.0 mi Calm Calm - N/A   Clear
7:53 PM 41.0 °F 39.0 °F 30.0 °F 65% 30.03 in 10.0 mi NNW 3.5 mph - N/A   Clear
8:53 PM 37.9 °F - 30.0 °F 73% 30.04 in 10.0 mi Calm Calm - N/A   Clear
9:53 PM 34.0 °F - 30.0 °F 85% 30.05 in 10.0 mi Calm Calm - N/A   Clear
10:53 PM 35.1 °F - 28.9 °F 78% 30.06 in 10.0 mi Calm Calm - N/A   Clear
11:53 PM 33.1 °F - 28.9 °F 85% 30.08 in 9.0 mi Calm Calm - N/A   Clear